[[{"header":{"parameterUnit":"m.s-1","parameterCategory":1,"la1":30.2991,"la2":30.254,"lo1":-89.0895,"lo2":-89.0444,"dy":0.0017,"dx":0.0017,"nx":28,"ny":28,"refTime":"2025-03-25T21:00:00:Z","depth":0,"parameterNumber":2,"parameterNumberName":"U-component_of_WINDS"},"data":[0,0,0,0,0,0,0,0,0,0,0,0,0,0,0,0,0,0,0,0,0,0,0,0,0,0,0,0,0,0,0,0,0,0,0,0,0,0,0,0,0,0,0,0,0,0,0,0,0,0,0,0,0,0,0,0,0,0,-3.3072,-3.3073,0,-3.3163,-3.3164,-3.3165,-3.3083,-3.308,-3.3076,-3.3073,-3.3173,-3.3178,-3.3184,0,0,0,0,0,0,0,0,0,0,0,0,0,-3.2831,-3.2836,-3.3072,-3.3073,-3.3074,-3.3163,-3.3164,-3.3166,-3.3084,-3.308,-3.3075,-3.3072,-3.3171,-3.3178,-3.3185,0,0,0,0,0,0,0,0,0,0,0,0,0,-3.2931,-3.2837,-3.3071,-3.3044,-3.3042,-3.3163,-3.3164,-3.3166,-3.3085,-3.3079,-3.3074,-3.307,-3.3169,-3.3177,-3.3186,-3.334,0,0,-3.3212,-3.3216,0,0,0,0,0,0,0,0,-3.2925,-3.294,-3.3047,-3.3046,-3.3044,-3.3106,-3.3116,-3.3225,-3.3086,-3.3069,-3.3073,-3.3067,-3.3155,-3.3165,-3.3193,-3.3345,-3.3349,-3.3213,-3.3218,-3.3222,-3.3224,0,0,0,0,0,0,0,-3.2918,-3.2935,-3.3108,-3.3048,-3.3047,-3.3028,-3.3037,-3.3136,-3.3139,-3.307,-3.3064,-3.3076,-3.3154,-3.3185,-3.3195,-3.335,-3.3213,-3.322,-3.3226,-3.3229,-3.3635,-3.364,0,0,0,0,0,0,-3.2914,-3.293,-3.3105,-3.3111,-3.2971,-3.3037,-3.3046,-3.3092,-3.3138,-3.314,-3.308,-3.3071,-3.3172,-3.3185,-3.3198,-3.3383,-3.3222,-3.323,-3.3235,-3.363,-3.3636,-3.3642,0,0,0,0,0,0,-3.2909,-3.293,-3.3101,-3.3019,-3.3039,-3.3046,-3.3098,-3.3096,-3.3127,-3.3145,-3.3146,-3.3111,-3.3169,-3.3186,-3.3305,-3.3385,-3.3234,-3.3242,-3.3623,-3.3632,-3.3639,-3.3754,0,0,0,0,0,0,-3.2902,-3.2929,-3.2986,-3.3021,-3.3044,-3.3206,-3.3103,-3.3102,-3.3142,-3.3132,-3.3175,-3.3177,-3.3166,-3.3293,-3.3314,-3.3394,-3.3248,-3.3616,-3.3627,-3.3637,-3.3743,-3.3765,-3.3784,0,0,0,0,0,-3.2894,-3.3016,-3.299,-3.3011,-3.3116,-3.321,-3.3224,-3.3207,-3.3148,-3.3207,-3.3219,-3.3176,-3.3373,-3.3306,-3.3329,-3.3413,-3.3611,-3.3624,-3.3636,-3.3734,-3.376,-3.3783,0,0,0,0,0,0,-3.2992,-3.302,-3.2991,-3.3127,-3.3167,-3.3196,-3.327,-3.3236,-3.3295,-3.3283,-3.3262,-3.3273,-3.3399,-3.3418,-3.3342,-3.3566,-3.3482,-3.35,-3.3549,-3.3575,-3.3595,-3.3588,-3.3256,0,0,0,0,0,-3.303,-3.3103,-3.3123,-3.3242,-3.3263,-3.3263,-3.3304,-3.3288,-3.3329,-3.3346,-3.3366,-3.3409,-3.3481,-3.3528,-3.3595,-3.3745,-3.3754,-3.3814,-3.3835,-3.3851,-3.3868,-3.3949,-3.3977,-3.3684,-3.3683,-3.3683,0,0,-3.3108,-3.3132,-3.318,-3.3262,-3.3291,-3.3369,-3.3278,-3.3364,-3.3422,-3.3359,-3.3473,-3.349,-3.3537,-3.3672,-3.3733,-3.3692,-3.395,-3.3867,-3.3881,-3.3888,-3.3965,-3.3993,-3.4018,-3.3692,-3.369,-3.3689,0,0,-3.3291,-3.3316,-3.3417,-3.3448,-3.3492,-3.3491,-3.3516,-3.3551,-3.3559,-3.3672,-3.3627,-3.3697,-3.382,-3.3855,-3.389,-3.4086,-3.405,-3.4109,-3.4217,-3.4297,-3.432,-3.434,-3.4412,-3.4437,-3.4125,-3.4125,-3.4125,0,-3.3383,-3.3497,-3.3474,-3.3564,-3.3602,-3.3547,-3.3651,-3.3682,-3.3747,-3.3776,-3.3728,-3.3882,-3.3909,-3.4053,-3.4101,-3.413,-3.4159,-3.4104,-3.4318,-3.4338,-3.4357,-3.4425,-3.4452,-3.4132,-3.4131,-3.413,-3.413,0,-3.3609,-3.3689,-3.3766,-3.3828,-3.3875,-3.3972,-3.3965,-3.4016,-3.3996,-3.4001,-3.4118,-3.4149,-3.4221,-3.4254,-3.4236,-3.4396,-3.4369,-3.432,-3.4236,-3.4392,-3.4456,-3.4482,-3.4142,-3.4139,-3.4137,-3.4136,0,0,-3.3858,-3.3905,-3.3934,-3.3962,-3.4007,-3.4069,-3.4164,-3.4233,-3.4277,-3.4324,-3.4404,-3.451,-3.4465,-3.4504,-3.4489,-3.4559,-3.4715,-3.4502,-3.4502,-3.4541,-3.4895,-3.4932,-3.4962,-3.469,-3.4694,-3.4698,-3.4891,0,-3.4043,-3.4205,-3.4188,-3.4344,-3.4418,-3.4367,-3.4449,-3.4487,-3.4494,-3.456,-3.4568,-3.4644,-3.4578,-3.4602,-3.4668,-3.4681,-3.4786,-3.4667,-3.4766,-3.477,-3.4757,-3.4995,-3.5035,-3.5216,-3.4916,-3.492,-3.4923,0,-3.4281,-3.4334,-3.4497,-3.4531,-3.4562,-3.4636,-3.4698,-3.4761,-3.4803,-3.4804,-3.4847,-3.4821,-3.4918,-3.4831,-3.4965,-3.4885,-3.4925,-3.4938,-3.4944,-3.4954,-3.4857,-3.5013,-3.5273,-3.53,-3.4962,-3.4959,-3.4956,0,-3.4447,-3.456,-3.4672,-3.4698,-3.474,-3.4793,-3.4814,-3.4851,-3.4894,-3.4949,-3.4977,-3.5043,-3.508,-3.5133,-3.5126,-3.5063,-3.5264,-3.5176,-3.5269,-3.5269,-3.5314,-3.5312,-3.5585,-3.5338,-3.5337,-3.5337,-3.5336,0,-3.4657,-3.4759,-3.4748,-3.4817,-3.493,-3.491,-3.5023,-3.5037,-3.507,-3.5143,-3.5103,-3.5172,-3.5157,-3.5227,-3.5222,-3.5335,-3.5352,-3.5356,-3.5354,-3.5361,-3.5361,-3.5387,-3.5375,-3.5344,-3.5342,-3.5341,-3.534,0,-3.4862,-3.4859,-3.4978,-3.5007,-3.5017,-3.51,-3.5126,-3.5192,-3.5196,-3.5288,-3.5309,-3.5316,-3.5395,-3.5393,-3.5484,-3.5481,-3.562,-3.5603,-3.5606,-3.5603,-3.5696,-3.5688,-3.5997,-3.6038,-3.5763,-3.5766,-3.5768,0,-3.4997,-3.5074,-3.5112,-3.5156,-3.518,-3.5253,-3.5296,-3.5279,-3.5326,-3.538,-3.5441,-3.5516,-3.5576,-3.5706,-3.5721,-3.5791,-3.5776,-3.5879,-3.5786,-3.5791,-3.5779,-3.5775,-3.5783,-3.5898,-3.5901,-3.5904,-3.5906,0,-3.5237,-3.5231,-3.5294,-3.5357,-3.5409,-3.5458,-3.5503,-3.5543,-3.5531,-3.5586,-3.5666,-3.5713,-3.5805,-3.5882,-3.5949,-3.5971,-3.5938,-3.5935,-3.596,-3.5968,-3.5967,-3.597,-3.5657,-3.5928,-3.5926,-3.5924,-3.5923,-3.5922,-3.5412,-3.5478,-3.5515,-3.5587,-3.5618,-3.5661,-3.5725,-3.5736,-3.5802,-3.5875,-3.5862,-3.5952,-3.5994,-3.608,-3.6109,-3.6181,-3.6144,-3.6181,-3.619,-3.62,-3.6211,-3.5955,-3.6193,-3.6192,-3.6191,-3.6191,-3.619,0,-3.565,-3.5671,-3.5737,-3.5801,-3.5858,-3.5819,-3.5867,-3.5918,-3.5997,-3.6037,-3.6097,-3.619,-3.6264,-3.6284,-3.6355,-3.6409,-3.6396,-3.6429,-3.6426,-3.6432,-3.6239,-3.621,-3.6439,-3.6439,-3.6439,-3.6439,-3.6438,-3.6438,-3.5781,-3.5891,-3.589,-3.6017,-3.6037,-3.6124,-3.6155,-3.6196,-3.6228,-3.6333,-3.6393,-3.6405,-3.6438,-3.6512,-3.6579,-3.6583,-3.6612,-3.6652,-3.665,-3.647,-3.6445,-3.6421,-3.6394,-3.6658,-3.6658,-3.6837,-3.6839,-3.684]},{"header":{"parameterUnit":"m.s-1","parameterCategory":1,"la1":30.2991,"la2":30.254,"lo1":-89.0895,"lo2":-89.0444,"dy":0.0017,"dx":0.0017,"nx":28,"ny":28,"refTime":"2025-03-25T21:00:00:Z","depth":0,"parameterNumber":3,"parameterNumberName":"V-component_of_WINDS"},"data":[0,0,0,0,0,0,0,0,0,0,0,0,0,0,0,0,0,0,0,0,0,0,0,0,0,0,0,0,0,0,0,0,0,0,0,0,0,0,0,0,0,0,0,0,0,0,0,0,0,0,0,0,0,0,0,0,0,0,-0.2347,-0.2346,0,-0.2256,-0.2255,-0.2254,-0.2184,-0.2183,-0.2183,-0.2182,-0.2085,-0.2083,-0.2081,0,0,0,0,0,0,0,0,0,0,0,0,0,-0.2455,-0.2454,-0.2347,-0.2346,-0.2345,-0.2257,-0.2255,-0.2254,-0.2184,-0.2183,-0.2182,-0.2182,-0.2086,-0.2084,-0.2081,0,0,0,0,0,0,0,0,0,0,0,0,0,-0.2391,-0.2453,-0.2347,-0.2299,-0.2294,-0.2257,-0.2255,-0.2254,-0.2184,-0.2183,-0.2182,-0.2181,-0.2087,-0.2084,-0.2081,-0.2083,0,0,-0.2072,-0.2071,0,0,0,0,0,0,0,0,-0.2395,-0.2387,-0.2307,-0.2303,-0.2297,-0.223,-0.2258,-0.2196,-0.2184,-0.2226,-0.2182,-0.2181,-0.2134,-0.2127,-0.2112,-0.2078,-0.2074,-0.2072,-0.207,-0.2069,-0.2068,0,0,0,0,0,0,0,-0.2399,-0.239,-0.2311,-0.2306,-0.23,-0.2281,-0.2271,-0.2246,-0.2187,-0.2222,-0.2217,-0.2207,-0.2131,-0.2115,-0.211,-0.2073,-0.2072,-0.2069,-0.2067,-0.2066,-0.2034,-0.2034,0,0,0,0,0,0,-0.2412,-0.2395,-0.2314,-0.2308,-0.2344,-0.228,-0.2268,-0.2253,-0.2187,-0.2176,-0.2208,-0.2204,-0.2121,-0.2113,-0.2106,-0.2102,-0.2069,-0.2066,-0.2064,-0.2033,-0.2034,-0.2035,0,0,0,0,0,0,-0.2414,-0.2405,-0.2318,-0.235,-0.2337,-0.2279,-0.2262,-0.2251,-0.2236,-0.2176,-0.2165,-0.2203,-0.212,-0.211,-0.2089,-0.2098,-0.2065,-0.2062,-0.2032,-0.2033,-0.2034,-0.2096,0,0,0,0,0,0,-0.2418,-0.2406,-0.2408,-0.2351,-0.2336,-0.2304,-0.2263,-0.225,-0.2231,-0.2225,-0.2169,-0.2158,-0.2118,-0.2094,-0.2086,-0.2093,-0.206,-0.2031,-0.2032,-0.2034,-0.2093,-0.2099,-0.2105,0,0,0,0,0,-0.2422,-0.2428,-0.2408,-0.2399,-0.2336,-0.2304,-0.2296,-0.2251,-0.2232,-0.2232,-0.2194,-0.216,-0.2099,-0.2092,-0.2083,-0.2089,-0.203,-0.2032,-0.2034,-0.209,-0.2098,-0.2105,0,0,0,0,0,0,-0.2486,-0.242,-0.2397,-0.2385,-0.2351,-0.2293,-0.2291,-0.2261,-0.223,-0.2226,-0.217,-0.2158,-0.2142,-0.2114,-0.2108,-0.2087,-0.206,-0.206,-0.2106,-0.2113,-0.2119,-0.2125,-0.2057,0,0,0,0,0,-0.25,-0.2481,-0.2423,-0.2418,-0.2402,-0.235,-0.2334,-0.2302,-0.2264,-0.2249,-0.2209,-0.2172,-0.2144,-0.2127,-0.2098,-0.2089,-0.2074,-0.2089,-0.2095,-0.21,-0.21,-0.2091,-0.2097,-0.2041,-0.2041,-0.2041,0,0,-0.2526,-0.2487,-0.2478,-0.243,-0.24,-0.238,-0.2338,-0.2319,-0.2303,-0.2246,-0.2223,-0.2193,-0.2148,-0.2132,-0.2123,-0.2108,-0.2113,-0.2103,-0.2107,-0.2104,-0.2094,-0.2099,-0.2104,-0.2043,-0.2042,-0.2042,0,0,-0.2564,-0.2533,-0.2525,-0.2496,-0.2452,-0.2417,-0.2415,-0.2361,-0.2339,-0.2316,-0.2272,-0.2252,-0.2205,-0.2175,-0.2153,-0.2179,-0.2146,-0.2171,-0.2202,-0.2194,-0.2198,-0.2202,-0.2209,-0.2213,-0.2172,-0.2172,-0.2172,0,-0.2602,-0.2571,-0.2525,-0.2508,-0.2487,-0.2436,-0.2427,-0.24,-0.2348,-0.2334,-0.2318,-0.2258,-0.2225,-0.22,-0.2207,-0.2192,-0.2186,-0.2177,-0.2202,-0.2205,-0.2207,-0.2214,-0.2217,-0.2176,-0.2175,-0.2175,-0.2175,0,-0.2619,-0.2599,-0.2597,-0.2549,-0.2528,-0.2516,-0.2466,-0.245,-0.242,-0.2387,-0.2363,-0.2321,-0.2282,-0.2274,-0.2245,-0.2245,-0.2237,-0.2213,-0.2184,-0.2217,-0.2222,-0.2224,-0.218,-0.2179,-0.2178,-0.2177,0,0,-0.2694,-0.2621,-0.2621,-0.2598,-0.2545,-0.2527,-0.2512,-0.2475,-0.2462,-0.2427,-0.2411,-0.2373,-0.235,-0.2326,-0.2292,-0.2285,-0.2307,-0.2261,-0.2259,-0.2269,-0.2303,-0.2321,-0.2325,-0.2285,-0.2285,-0.2286,-0.2306,0,-0.2722,-0.2692,-0.265,-0.2633,-0.2613,-0.2564,-0.2549,-0.2515,-0.2483,-0.2459,-0.2423,-0.2397,-0.2369,-0.2354,-0.2345,-0.2306,-0.2312,-0.2304,-0.2268,-0.2267,-0.2279,-0.2328,-0.2346,-0.2368,-0.2308,-0.2308,-0.2308,0,-0.2751,-0.272,-0.2702,-0.265,-0.2639,-0.2628,-0.259,-0.2569,-0.2528,-0.2505,-0.2478,-0.2442,-0.2421,-0.2396,-0.2365,-0.2361,-0.2343,-0.2322,-0.2322,-0.2315,-0.2289,-0.2321,-0.2374,-0.2376,-0.2311,-0.2311,-0.2311,0,-0.2805,-0.276,-0.2742,-0.2724,-0.2663,-0.2656,-0.263,-0.2588,-0.2568,-0.2535,-0.2521,-0.2486,-0.2466,-0.2439,-0.2393,-0.238,-0.2367,-0.2339,-0.2346,-0.2347,-0.2344,-0.2344,-0.2393,-0.2336,-0.2336,-0.2336,-0.2335,0,-0.284,-0.283,-0.2766,-0.2755,-0.2742,-0.2693,-0.2681,-0.2651,-0.2614,-0.2595,-0.2551,-0.2533,-0.2475,-0.2451,-0.2415,-0.2394,-0.2386,-0.2366,-0.2356,-0.2369,-0.2371,-0.2355,-0.2352,-0.2336,-0.2336,-0.2336,-0.2336,0,-0.2898,-0.2855,-0.2833,-0.2777,-0.2763,-0.2756,-0.2707,-0.2694,-0.266,-0.2637,-0.2628,-0.2574,-0.2543,-0.2496,-0.245,-0.2426,-0.241,-0.2396,-0.2425,-0.2419,-0.2427,-0.2427,-0.2466,-0.2468,-0.2412,-0.2413,-0.2413,0,-0.2923,-0.2914,-0.2858,-0.2843,-0.2819,-0.2795,-0.2775,-0.2726,-0.2707,-0.2659,-0.2651,-0.2617,-0.2587,-0.254,-0.2495,-0.246,-0.2442,-0.2459,-0.2437,-0.245,-0.2441,-0.2441,-0.2439,-0.2464,-0.2464,-0.2465,-0.2466,0,-0.297,-0.2949,-0.2922,-0.2888,-0.2866,-0.2836,-0.2804,-0.2794,-0.2738,-0.2718,-0.2686,-0.2663,-0.2617,-0.2583,-0.2542,-0.2513,-0.2479,-0.2473,-0.2473,-0.2485,-0.2501,-0.2491,-0.2437,-0.2472,-0.2472,-0.2471,-0.2471,-0.2471,-0.301,-0.3,-0.2959,-0.293,-0.2901,-0.2873,-0.2857,-0.2822,-0.2795,-0.2755,-0.2727,-0.2697,-0.2655,-0.2596,-0.2569,-0.2543,-0.2529,-0.2528,-0.2528,-0.2528,-0.2532,-0.2507,-0.2536,-0.2535,-0.2535,-0.2535,-0.2535,0,-0.3053,-0.3025,-0.2999,-0.2957,-0.2934,-0.2906,-0.2869,-0.2852,-0.2826,-0.279,-0.2762,-0.2725,-0.2692,-0.2645,-0.2608,-0.2596,-0.258,-0.2588,-0.2587,-0.2581,-0.2548,-0.2552,-0.2602,-0.2602,-0.2602,-0.2602,-0.2602,-0.2602,-0.3073,-0.3054,-0.3028,-0.2994,-0.2964,-0.2935,-0.2916,-0.2889,-0.286,-0.2821,-0.2794,-0.2764,-0.2723,-0.2683,-0.2651,-0.2638,-0.2625,-0.2638,-0.262,-0.259,-0.2583,-0.2578,-0.2581,-0.2636,-0.2636,-0.2655,-0.2655,-0.2655]}]]